Hourly Weather Roundup
Issued by NWS Central Illinois

Home | Current Version | Previous Version | Text Only | Print | Product List | Glossary On
Versions: 1 2 3 4 5 6 7 8 9 10 11 12 13 14 15 16 17 18 19 20 21 22 23 24 25 26 27 28 29 30 31 32 33 34 35 36 37 38 39 40 41 42 43 44 45 46 47 48 49 50
000
NZUS43 KILX 272010
HWRILX

Area Weather Roundup
National Weather Service Lincoln IL
300 PM CDT SAT MAY 27 2017

NOTE:  "FAIR" indicates few or no clouds below 12,000 feet, with
       no sigificant weather and/or obstructions to visibility.


CITY           SKY/WX    TMP DP  RH WIND       PRES   REMARKS
Bloomington    SUNNY     78  62  57 SE7       29.87F HX  80
Champaign      PTSUNNY   72  63  73 VRB5      29.89F
Danville       CLOUDY    69  62  79 NE5       29.86F
Decatur        SUNNY     75  65  70 NE8       29.87F
Effingham      CLOUDY    79  66  63 CALM      29.87F HX  81
Flora          PTSUNNY   83  66  56 CALM      29.85F HX  86
Galesburg      CLOUDY    74  62  64 SE5       29.85F
Jacksonville   SUNNY     77  64  63 CALM      29.87S
Lacon          MOSUNNY   75  64  69 NE6       29.85F
Lawrenceville  PTSUNNY   83  68  60 W6        29.85F HX  86
Litchfield     CLOUDY    74  62  65 CALM      29.87S HAZE
$$


CITY           SKY/WX    TMP DP  RH WIND       PRES   REMARKS
Lincoln        SUNNY     81  62  53 CALM      29.86F HX  82
Macomb         MOSUNNY   75  63  67 S3        29.89S
Mattoon        SUNNY     77  65  66 NE5       29.86F
Mt Carmel AP   MOSUNNY   82  66  57 CALM      29.84F HX  84
Olney-Noble AP MOSUNNY   82  68  61 NE5       29.85F HX  85
Paris AP       SUNNY     74  66  76 CALM      29.89F
Peoria         SUNNY     77  62  59 E5        29.86F
Pontiac        MOSUNNY   76  66  70 CALM      29.87F
Rantoul        PTSUNNY   73  64  73 E3        29.88F
Robinson       SUNNY     79  66  63 N5        29.87F HX  81
Springfield    SUNNY     81  62  52 NE6       29.85F HX  82
Taylorville    CLOUDY    77  63  62 E5        29.86F
$$

...REGIONAL REPORTS...


CITY           SKY/WX    TMP DP  RH WIND       PRES   REMARKS
Chicago O`Hare PTSUNNY   76  53  44 CALM      29.87F
Kankakee       MOSUNNY   80  61  51 CALM      29.87F HX  81
Moline         CLOUDY    77  61  57 MISG      29.84F
Mount Sterling SUNNY     75  62  63 SE6       29.86F
Mount Vernon     N/A     82  69  64 SW5       29.86S HX  85
Pittsfield     CLOUDY    78  66  66 NE8       29.88F
Quincy         CLOUDY    77  64  64 SE8       29.86F
Rockford       PTSUNNY   75  60  59 VRB3      29.88F
$$


CITY           SKY/WX    TMP DP  RH WIND       PRES   REMARKS
Burlington     CLOUDY    72  65  78 S6        29.86F
Cedar Rapids   PTSUNNY   72  64  76 E6        29.83F
Des Moines     CLOUDY    64  60  87 NE9       29.85R
Kirksville     CLOUDY    79  61  53 SE12      29.82F HX  80
Ottumwa        MOSUNNY   74  63  68 SE9       29.81F
St Louis       TSTM      79  65  62 N8        29.86R HX  81
$$


CITY           SKY/WX    TMP DP  RH WIND       PRES   REMARKS
Terre Haute    SUNNY     78  62  57 CALM      29.87F HX  80
Evansville     PTSUNNY   85  70  60 SW9       29.84F HX  89
Indianapolis   MOSUNNY   78  64  61 CALM      29.86F HX  80
Lafayette      CLOUDY    71  63  75 N5        29.88F
Madison        CLOUDY    72  59  63 VRB6      29.88F
Milwaukee      PTSUNNY   69  54  58 SE12      29.89F
$$






USA.gov is the U.S. government's official web portal to all federal, state and local government web resources and services.